Date String (YYYY-MM-DD hh:mm:ss) UTC,Instrument flags,Ambient pressure (hPa),Sample flow (lpm),Bypass flow (lpm),Sample temperature (°C),Ambient temperature (°C),ASC tube jacket temperature (°C),LED temperature (°C),Box temperature (°C),Sample RH (%),Span deviation,Mass concentration (μg/m³),Mass concentration (μg/m³),Mass concentration (μg/m³)
DateTimeUTC,F1_M11,P_M11,Q1_M11,Q2_M11,T1_M11,T2_M11,T3_M11,T4_M11,T5_M11,U1_M11,ZSPAN_M11,X0_M11,X2_M11,X1_M11
2022-01-03 12:00:00,,0826.5,4.99,0.00,21.8,21.4,00.0,30.8,23.5,08.7,0000.0,0001.42,0000.04,0000.00
2022-01-03 12:01:00,,0826.5,5.00,0.00,21.8,21.4,00.0,30.8,23.5,08.9,0000.0,0001.11,0000.04,0000.00
2022-01-03 12:02:00,,0826.5,5.00,0.00,21.8,21.3,00.0,30.8,23.4,08.9,0000.0,0001.11,0000.04,0000.00
2022-01-03 12:03:00,,0826.6,5.01,0.00,21.8,21.3,00.0,30.8,23.4,09.0,0000.0,0001.07,0000.02,0000.00
2022-01-03 12:04:00,,0826.7,4.99,0.00,21.8,21.3,00.0,30.8,23.4,09.2,0000.0,0001.07,0000.02,0000.00
2022-01-03 12:05:00,,0826.6,4.99,0.00,21.7,21.3,00.0,30.8,23.4,08.9,0000.0,0001.13,0000.03,0000.00
2022-01-03 12:06:00,,0826.5,5.01,0.00,21.7,21.2,00.0,30.8,23.4,08.5,0000.0,0001.13,0000.03,0000.00
2022-01-03 12:07:00,,0826.5,4.99,0.00,21.7,21.2,00.0,30.8,23.4,08.4,0000.0,0001.11,0000.02,0000.00
2022-01-03 12:08:00,,0826.5,5.00,0.00,21.7,21.1,00.0,30.8,23.4,08.6,0000.0,0001.11,0000.02,0000.00
2022-01-03 12:09:00,,0826.7,5.01,0.00,21.7,21.1,00.0,30.8,23.3,08.7,0000.0,0001.60,0000.02,0000.00
2022-01-03 12:10:00,,0826.7,5.01,0.00,21.7,21.1,00.0,30.8,23.3,08.5,0000.0,0001.75,0000.02,0000.00
2022-01-03 12:11:00,,0826.6,4.99,0.00,21.7,21.1,00.0,30.8,23.3,08.3,0000.0,0001.74,0000.02,0000.00
2022-01-03 12:12:00,,0826.5,5.00,0.00,21.7,21.1,00.0,30.8,23.3,08.0,0000.0,0001.74,0000.02,0000.00
2022-01-03 12:13:00,,0826.5,5.01,0.00,21.8,21.7,00.0,30.8,23.5,08.2,0000.0,0001.74,0000.02,0000.00
2022-01-03 12:14:00,,0826.6,4.99,0.00,21.9,22.6,00.0,30.8,23.8,08.8,0000.0,0001.74,0000.02,0000.00
2022-01-03 12:15:00,,0826.6,4.99,0.00,22.1,23.0,00.0,30.9,24.0,08.9,0000.0,0001.76,0000.03,0000.00
2022-01-03 12:16:00,,0826.6,5.00,0.00,22.1,22.7,00.0,30.9,23.9,08.9,0000.0,0001.72,0000.02,0000.00
2022-01-03 12:17:00,,0826.5,4.99,0.00,22.0,22.3,00.0,30.9,23.7,08.6,0000.0,0001.69,0000.02,0000.00
2022-01-03 12:18:00,,0826.6,5.01,0.00,22.0,22.0,00.0,30.9,23.6,08.6,0000.0,0001.69,0000.02,0000.00
2022-01-03 12:19:00,,0826.6,5.00,0.00,21.9,21.7,00.0,30.9,23.4,08.3,0000.0,0001.70,0000.03,0000.00
2022-01-03 12:20:00,,0826.5,5.00,0.00,21.8,21.4,00.0,30.9,23.4,08.1,0000.0,0001.06,0000.04,0000.00
2022-01-03 12:21:00,,0826.5,4.99,0.00,21.8,21.2,00.0,30.9,23.4,08.3,0000.0,0000.06,0000.04,0000.00
2022-01-03 12:22:00,,0826.5,4.99,0.00,21.8,21.1,00.0,30.9,23.3,08.7,0000.0,0000.10,0000.05,0000.00
2022-01-03 12:23:00,,0826.5,5.00,0.00,21.7,21.0,00.0,30.9,23.3,08.2,0000.0,0000.18,0000.06,0000.00
2022-01-03 12:24:00,,0826.5,5.01,0.00,21.7,21.0,00.0,30.9,23.3,08.0,0000.0,0000.24,0000.07,0000.00
2022-01-03 12:25:00,,0826.5,5.00,0.00,21.7,21.0,00.0,30.8,23.3,07.4,0000.0,0000.25,0000.08,0000.00
2022-01-03 12:26:00,,0826.5,5.00,0.00,21.7,20.9,00.0,30.8,23.3,07.7,0000.0,0000.23,0000.07,0000.00
2022-01-03 12:27:00,,0826.5,4.99,0.00,21.6,20.9,00.0,30.8,23.2,08.6,0000.0,0000.23,0000.06,0000.00
2022-01-03 12:28:00,,0826.5,5.01,0.00,21.6,20.8,00.0,30.8,23.1,08.7,0000.0,0000.29,0000.07,0000.00
2022-01-03 12:29:00,,0826.5,5.00,0.00,21.6,20.8,00.0,30.8,23.1,08.8,0000.0,0000.31,0000.07,0000.00
2022-01-03 12:30:00,,0826.5,5.00,0.00,21.5,21.0,00.0,30.7,23.2,08.5,0000.0,0000.30,0000.07,0000.00
2022-01-03 12:31:00,,0826.6,5.00,0.00,21.7,21.8,00.0,30.8,23.4,08.6,0000.0,0000.28,0000.06,0000.00
2022-01-03 12:32:00,,0826.6,5.00,0.00,21.8,22.7,00.0,30.8,23.8,08.9,0000.0,0000.28,0000.06,0000.00
2022-01-03 12:33:00,,0826.6,5.00,0.00,22.0,22.8,00.0,30.8,23.9,08.6,0000.0,0000.26,0000.05,0000.00
2022-01-03 12:34:00,,0826.5,5.00,0.00,22.0,22.5,00.0,30.9,23.7,08.1,0000.0,0000.18,0000.03,0000.00
2022-01-03 12:35:00,,0826.5,5.00,0.00,21.9,22.2,00.0,30.9,23.6,08.1,0000.0,0000.11,0000.02,0000.00
2022-01-03 12:36:00,,0826.5,5.00,0.00,21.9,22.0,00.0,30.9,23.5,08.4,0000.0,0000.12,0000.02,0000.00
2022-01-03 12:37:00,,0826.5,5.00,0.00,21.9,21.8,00.0,30.9,23.5,08.1,0000.0,0000.14,0000.03,0000.00
2022-01-03 12:38:00,,0826.5,5.00,0.00,21.9,21.7,00.0,30.9,23.5,07.3,0000.0,0000.14,0000.03,0000.00
2022-01-03 12:39:00,,0826.5,5.00,0.00,21.9,21.6,00.0,30.9,23.5,07.1,0000.0,0000.10,0000.02,0000.00
2022-01-03 12:40:00,,0826.5,5.01,0.00,21.9,21.5,00.0,30.9,23.5,07.6,0000.0,0000.05,0000.01,0000.00
2022-01-03 12:41:00,,0826.4,5.01,0.00,21.9,21.4,00.0,30.9,23.5,07.9,0000.0,0000.08,0000.03,0000.00
2022-01-03 12:42:00,,0826.4,5.00,0.00,21.8,21.3,00.0,30.9,23.5,07.7,0000.0,0000.08,0000.03,0000.00
2022-01-03 12:43:00,,0826.4,5.00,0.00,21.8,21.3,00.0,30.9,23.4,07.9,0000.0,0000.11,0000.03,0000.00
2022-01-03 12:44:00,,0826.5,5.01,0.00,21.8,21.1,00.0,30.9,23.4,08.4,0000.0,0000.49,0000.04,0000.00
2022-01-03 12:45:00,,0826.5,4.99,0.00,21.7,21.0,00.0,30.8,23.3,08.3,0000.0,0000.49,0000.04,0000.00
2022-01-03 12:46:00,,0826.5,5.00,0.00,21.7,20.9,00.0,30.8,23.2,08.4,0000.0,0000.49,0000.04,0000.00
2022-01-03 12:47:00,,0826.5,5.00,0.00,21.6,20.8,00.0,30.8,23.2,08.7,0000.0,0000.46,0000.03,0000.00
2022-01-03 12:48:00,,0826.5,5.01,0.00,21.6,20.8,00.0,30.8,23.1,07.8,0000.0,0000.59,0000.03,0000.00
2022-01-03 12:49:00,,0826.5,5.00,0.00,21.6,20.8,00.0,30.8,23.1,07.7,0000.0,0001.30,0000.05,0000.00
2022-01-03 12:50:00,,0826.5,4.99,0.00,21.5,20.8,00.0,30.7,23.1,07.8,0000.0,0001.33,0000.05,0000.00
2022-01-03 12:51:00,,0826.5,4.99,0.00,21.5,20.8,00.0,30.7,23.1,08.1,0000.0,0001.33,0000.05,0000.00
2022-01-03 12:52:00,,0826.5,5.00,0.00,21.5,21.1,00.0,30.7,23.2,08.6,0000.0,0001.30,0000.04,0000.00
2022-01-03 12:53:00,,0826.3,5.00,0.00,21.7,22.0,00.0,30.7,23.5,07.7,0000.0,0001.29,0000.04,0000.00
2022-01-03 12:54:00,,0826.4,5.00,0.00,21.9,22.9,00.0,30.8,23.8,07.6,0000.0,0001.47,0000.05,0000.00
2022-01-03 12:55:00,,0826.5,5.01,0.00,21.9,22.8,00.0,30.8,23.8,08.6,0000.0,0001.17,0000.05,0000.00
2022-01-03 12:56:00,,0826.5,5.00,0.00,21.9,22.4,00.0,30.8,23.7,08.3,0000.0,0001.72,0000.05,0000.00
2022-01-03 12:57:00,,0826.5,5.00,0.00,21.9,21.9,00.0,30.8,23.5,08.9,0000.0,0002.30,0000.05,0000.00
2022-01-03 12:58:00,,0826.5,4.99,0.00,21.8,21.6,00.0,30.8,23.4,08.7,0000.0,0002.30,0000.05,0000.00
2022-01-03 12:59:00,,0826.5,5.02,0.00,21.7,21.4,00.0,30.8,23.3,08.5,0000.0,0002.32,0000.05,0000.00
